Regional Weather Roundup
Issued by NWS

Home | Current Version | Previous Version | Text Only | Print | Product List | Glossary On
Versions: 1 2 3 4 5 6 7 8 9 10 11 12 13 14 15 16 17 18 19 20 21 22 23 24 25 26 27 28 29 30 31 32 33 34 35 36 37 38 39 40 41 42 43 44 45 46 47 48 49 50
000
ASUS42 KTBW 201210
RWRFL
FLORIDA REGIONAL WEATHER ROUNDUP
NATIONAL WEATHER SERVICE TAMPA BAY RUSKIN FL
800 AM EDT SAT SEP 20 2014

NOTE: "FAIR" INDICATES FEW OR NO CLOUDS BELOW 12,000 FEET WITH NO
SIGNIFICANT WEATHER AND/OR OBSTRUCTIONS TO VISIBILITY.


FLZ001>010-012>015-112-114-115-201300-
PANHANDLE FLORIDA

CITY           SKY/WX    TMP DP  RH WIND       PRES   REMARKS
PENSACOLA      CLEAR     69  67  93 E6        29.99R
PENSACOLA NAS  CLEAR     71  68  90 NE9       29.97R
MILTON NAS     CLEAR     68  65  90 NE7       30.00R
CRESTVIEW      MOCLDY    68  67  96 E7        30.03R FOG
DUKE FIELD     CLOUDY    68  68 100 NE7       30.01R
VALPARAISO     MOCLDY    70  67  91 NE9       29.99R
MARY ESTHER    CLEAR     69  64  83 NE8       29.98R
TRI COUNTY     CLOUDY    69  68  96 MISG      30.03R
PANAMA CITY    CLOUDY    71  68  90 NE10      29.99R
TYNDALL AFB    MOCLDY    69  69 100 NE9G17    29.99R
APALACHICOLA   PTCLDY    72  68  87 NE10      29.97R

STATION/POSITION SKY/WX   TEMP    WIND        PRES    WAVE   SWELL
                          AIR SEA DIR/SP/G            HT/PER HT/PER
                          (F)     (DEG/KT/KT) (MB)    (FT/S) (FT/S)
30.1N   87.6W              80 85   80/ 17/ 21 1014.3R   5/ 7
29.2N   88.2W              82 84   90/ 19/ 25 1013.7R   6/ 7
28.8N   86.0W              81 85   90/ 17/ 21 1012.8R   5/ 7
PANAMA CITY BEAC           71 83   50/  9/ 18 1015.3R
CAPE SAN BLAS    NOT AVBL
TOWER C                    77      50/ 14/ 16 1014.0R
28.5N   84.5W              79 84   80/ 14/ 17 1013.2R   4/ 6

$$
FLZ011-016>038-118-127-128-134-139-239-201300-
NORTH FLORIDA

CITY           SKY/WX    TMP DP  RH WIND       PRES   REMARKS
MARIANNA       CLOUDY    70  70 100 NE9       30.01R
TALLAHASSEE    CLOUDY    70  68  93 NE6       30.00R
PERRY          CLOUDY    68  68 100 NE6       29.99R
CROSS CITY       N/A     70  68  93 N3        29.96R
LAKE CITY      CLOUDY    70  70 100 NE6       29.98R
GAINESVILLE    CLOUDY    70  69  97 N7        29.97R
MAYPORT NAS    RAIN      72  69  90 E7        29.96R FOG
JACKSONVILLE   CLOUDY    71  71 100 NE3       29.95F
JAX NAS        LGT RAIN  76  71  85 N5        29.97R
JAX CRAIG      LGT RAIN  73  71  93 NE6       29.96R
JAX CECIL      CLOUDY    72  70  94 CALM      29.97R
ST AUGUSTINE   CLOUDY    72  70  93 NW9       29.96R

STATION/POSITION SKY/WX   TEMP    WIND        PRES    WAVE   SWELL
                          AIR SEA DIR/SP/G            HT/PER HT/PER
                          (F)     (DEG/KT/KT) (MB)    (FT/S) (FT/S)
SHELL POINT                70      20/  5/  7   N/A
KEATON BEACH               70      40/  7/ 10 1015.1R
CEDAR KEY                  71      40/  4/  5 1014.5R
FERNANDINA                 73 84   60/  3/  6 1014.0R
30.7N   81.3W                 84                N/A     4/ 6
MAYPORT                    72 83   90/  6/  9   N/A
31.4N   80.9W              77 83   80/ 23/ 31 1014.4F   6/ 6
ST AUGUSTINE               71     320/  7/  8 1014.5R

$$
FLZ040-043>046-052-053-057-058-063-144-201300-
INTERIOR CENTRAL FLORIDA

CITY           SKY/WX    TMP DP  RH WIND       PRES   REMARKS
THE VILLAGES     N/A     72  70  94 CALM      29.85R FOG
LEESBURG       CLOUDY    71  69  93 NE5       29.93S
SANFORD        CLOUDY    72  70  93 NE5       29.92S FOG
ORLANDO EXEC   LGT RAIN  72  70  93 NE7       29.92S FOG
ORLANDO INTL   RAIN      71  71 100 NE7       29.92R FOG
KISSIMMEE      LGT RAIN  72  70  94 NE7       29.92R FOG
WINTER HAVEN   HVY RAIN  71  70  96 N6        29.92S VSB 3/4
LAKELAND       LGT RAIN  72  70  94 N5        29.91S
BARTOW         CLOUDY    70 N/A N/A CALM      29.92S
OKEECHOBEE       N/A     72  72 100 MISG      29.92R

$$
FLZ041-047-054-059-064-141-147-201300-
EAST CENTRAL FLORIDA

CITY           SKY/WX    TMP DP  RH WIND       PRES   REMARKS
ORMOND BEACH   LGT RAIN  70  68  94 CALM      29.94R
DAYTONA BEACH  LGT RAIN  72  71  97 NW7       29.94R
DELAND         CLOUDY    70  70 100 N5        29.94S
NEW SMYRNA BEA MOCLDY    72  70  94 W3        29.93R
JFK SPACE CTR  DRIZZLE   73  72  94 N2        29.91S
TITUSVILLE     LGT RAIN  75  72  88 CALM      29.91S
CAPE CANAVERAL CLOUDY    73  72  94 E2        29.90S
PATRICK AFB    CLOUDY    76  74  93 SW5       29.90S
MELBOURNE      CLOUDY    75  72  90 S5        29.90S
VERO BEACH     CLOUDY    73  71  93 SE3       29.91S
FT PIERCE      CLOUDY    75  72  90 CALM      29.90F
STUART         PTSUNNY   73  72  94 CALM      29.92F

STATION/POSITION SKY/WX   TEMP    WIND        PRES    WAVE   SWELL
                          AIR SEA DIR/SP/G            HT/PER HT/PER
                          (F)     (DEG/KT/KT) (MB)    (FT/S) (FT/S)
28.5N   80.2W              76 84  100/  6/  8 1012.8R
28.9N   78.5W              79 84  120/ 12/ 14 1012.4S   6/ 8   5/ 8
TRIDENT PIER               75 84  110/  4/  6 1012.1R
28.4N   80.5W                 83                N/A     2/ 5
27.6N   80.2W                 83                N/A     2/ 9

$$
FLZ050-056-061-142-242-148-248-149-249-151-251-155-255-
160-260-201300-
WEST CENTRAL FLORIDA

CITY           SKY/WX    TMP DP  RH WIND       PRES   REMARKS
CRYSTAL RIVER  FAIR      70  68  94 NE5       29.94S
INVERNESS      CLOUDY    70  63  78 N6        29.95R
BROOKSVILLE    LGT RAIN  70  69  97 N7        29.93R
ZEPHYRHILLS    FAIR      63  63 100 NE3       29.92S
CLEARWATER     CLOUDY    73  70  90 NE5       29.92R
TAMPA INTL     CLOUDY    71  69  93 NE3       29.92R
TAMPA EXEC     CLOUDY    72  70  94 CALM      29.92R FOG
PLANT CITY     LGT RAIN  72 N/A N/A CALM      29.93S
MACDILL AFB    DRIZZLE   71  71 100 NE3       29.92R
ST PETERSBURG  CLOUDY    72  70  93 N6        29.90R
SARASOTA       LGT RAIN  72  71  97 NW5       29.90R FOG
VENICE           N/A    N/A N/A N/A MISG        N/A

STATION/POSITION SKY/WX   TEMP    WIND        PRES    WAVE   SWELL
                          AIR SEA DIR/SP/G            HT/PER HT/PER
                          (F)     (DEG/KT/KT) (MB)    (FT/S) (FT/S)
CEDAR KEY                  71      40/  4/  5 1014.5R
28.5N   84.5W              79 84   80/ 14/ 17 1013.2R   4/ 6
27.3N   84.3W                 85                N/A     2/ 5
CLEARWATER BEACH NOT AVBL
MIDDLE TAMPA BAY           73      80/  4/  5 1013.2R
VENICE                     78 85  290/ 21/ 23 1012.3R

$$
FLZ066-069-070-075>078-162-262-165-265-201300-
SOUTHWEST FLORIDA AND KEYS

CITY           SKY/WX    TMP DP  RH WIND       PRES   REMARKS
PUNTA GORDA    CLOUDY    76  74  93 W7        29.92R
FT MYERS       CLOUDY    75  74  96 CALM      29.91R
SOUTHWEST INTL CLOUDY    75  61  61 SW3       29.92R
NAPLES         CLOUDY    77  75  93 SE5       29.91R
MARCO ISLAND   CLOUDY    75  73  94 CALM      29.91S
MARATHON       MOSUNNY   82  75  79 SE6       29.92S
KEY WEST NAS   CLOUDY    82  77  84 S10       29.92R
KEY WEST INTL  CLOUDY    83  75  77 S9        29.92R

STATION/POSITION SKY/WX   TEMP    WIND        PRES    WAVE   SWELL
                          AIR SEA DIR/SP/G            HT/PER HT/PER
                          (F)     (DEG/KT/KT) (MB)    (FT/S) (FT/S)
VENICE                     78 85  290/ 21/ 23 1012.3R
NAPLES                     77 88  130/  4/  5 1013.4S
DRY TORTUGAS               83     170/  7/  9 1012.9R
NW FL BAY                  81     110/  4/  5 1012.9S
SAND KEY                   83     170/ 12/ 15 1013.1R
SOMBRERO KEY               83     170/ 11/ 12 1014.0R
LONG KEY                   81 84   60/  4/  4 1013.9R
MOLASSES REEF              83 85  190/ 10/ 11 1013.4R

$$
FLZ067-068-071>074-168-172>174-201300-
SOUTHEAST FLORIDA

CITY           SKY/WX    TMP DP  RH WIND       PRES   REMARKS
W PALM BEACH   CLOUDY    75  74  96 W3        29.91S
FT LAUDER-EXEC CLOUDY    76  76 100 W3        29.92R
FT LAUDERDALE  CLOUDY    78  76  93 SW3       29.92R
POMPANO BEACH  CLOUDY    77  75  93 W3        29.92R
PEMBROKE PINES PTSUNNY   77  77 100 W3        29.94R
OPA LOCKA      CLOUDY    77  76  96 CALM      29.93R
MIAMI          PTSUNNY   78  75  90 SW3       29.93R
WEST KENDALL   PTSUNNY   77  74  90 CALM      29.93R
HOMESTEAD      PTSUNNY   75  73  94 CALM      29.93R

STATION/POSITION SKY/WX   TEMP    WIND        PRES    WAVE   SWELL
                          AIR SEA DIR/SP/G            HT/PER HT/PER
                          (F)     (DEG/KT/KT) (MB)    (FT/S) (FT/S)
PORT EVERGLADES            78     240/  2/  5 1013.2
VIRGINIA KEY               80 84  260/  5/  6   N/A
LAKE WORTH                 76 85  260/  4/  4 1012.8R
FOWEY ROCKS                82 85  240/  6/  7 1013.7R
SETTLEMENT POINT           78     350/ 10/ 12 1014.0R

$$




USA.gov is the U.S. government's official web portal to all federal, state and local government web resources and services.